www.pogodaiklimat.ru

АРХИВ ПОГОДЫ в Краснодаре

Время (UTC), дата Ветер
(напр.,м/с)
 
Видим.   Явления Облачность Т
(С)
Тd
(С)
f
(%)
Тe
(С)
Тes
(С)
Комфортность P
(гПа)
Po
(гПа)
Тmin
(С)
Tmax
(С)
R
(мм)
S
(см)
03 22.11 СВ 2 10 км 10/9 600 м
[Sc Ac trans]
+1.0 -2.9 75 -2 -2 прохладно 1018.0 1014.2 +1.0
06 22.11 СВ 3 10 км 8/3 1000 м
[Sc Ci fib]
-0.0 -5.0 69 -4 -4 холодно 1018.5 1014.7 -0.7
09 22.11 СВ 3
{10}
10 км 3/0
[Ac trans Ci fib]
+3.6 -5.0 53 0 +3 прохладно 1018.3 1014.6
12 22.11 СВ 4-11
{12}
10 км 3/0
[Ac trans]
+4.7 -5.6 47 +1 +2 холодно 1018.6 1014.9
15 22.11 СВ 3
{13}
10 км ясно +0.7 -5.0 66 -3 -3 холодно 1020.7 1016.9 +4.7
18 22.11 СВ 3
{12}
10 км 10/10 300 м
[St]
-0.1 -3.6 77 -5 -5 очень
холодно
1022.0 1018.2
21 22.11 СВ 2
{11}
10 км 9/6 300 м
[St Ac trans]
-0.8 -4.9 74 -4 -4 холодно 1022.7 1018.9
00 23.11 СВ 3 10 км 8/8 300 м
[St]
-1.4 -5.3 75 -6 -6 холодно 1023.0 1019.2
03 23.11 СВ 2 10 км ясно -2.6 -7.5 69 -6 -6 холодно 1023.4 1019.5 -2.6
06 23.11 С 2 10 км 5/5 300 м
[St]
-3.4 -7.4 74 -7 -7 очень
холодно
1025.1 1021.2 -3.5
09 23.11 СВ 2 10 км 9/3 1000 м
[Sc Ac trans]
+1.1 -6.1 59 -2 -1 холодно 1026.0 1022.2
12 23.11 СВ 3 10 км 8/0
[Ac trans]
+1.7 -5.5 59 -2 -2 очень
холодно
1025.9 1022.1
15 23.11 СВ 3 10 км 10/0
[Ac trans]
0.0 -5.8 65 -4 -4 очень
холодно
1026.3 1022.5 +2.3
18 23.11 СВ 2 10 км ясно -1.6 -6.2 71 -5 -5 холодно 1027.1 1023.2
21 23.11 СВ 1 10 км ясно -2.7 -6.5 75 -5 -5 холодно 1027.8 1023.9
00 24.11 СВ 2 10 км ясно -3.6 -7.3 75 -8 -8 очень
холодно
1028.0 1024.1
03 24.11 СВ 1 н/о н/о -4.5 -8.4 74 -7 -7 очень
холодно
1028.1 1024.2 -4.6
06 24.11 СВ 2 10 км 1/0
[Ac trans]
-2.9 -7.0 73 -7 -6 очень
холодно
1028.9 1025.0 -4.7
09 24.11 СВ 3 10 км ясно +3.4 -9.4 39 0 +3 прохладно 1028.9 1025.1
12 24.11 СВ 3-11
{13}
10 км ясно +3.7 -4.9 53 +1 +2 прохладно 1028.4 1024.6
15 24.11 СВ 2
{11}
10 км 1/1 1000 м
[Sc]
-2.4 -6.1 76 -6 -6 очень
холодно
1029.8 1025.9 +4.9
18 24.11 СВ 2 10 км 10/10 300 м
[St]
-2.9 -6.3 77 -7 -7 очень
холодно
1030.3 1026.4
21 24.11 СВ 2 10 км 10/10 300 м
[St]
-3.3 -6.6 78 -7 -7 очень
холодно
1030.4 1026.5
00 25.11 СВ 3
{10}
10 км 10/10 300 м
[St]
-3.5 -6.9 77 -9 -9 очень
холодно
1029.5 1025.6
03 25.11 СВ 3 10 км 10/10 300 м
[St]
-3.6 -7.6 74 -9 -9 очень
холодно
1028.5 1024.6 -3.8
06 25.11 СВ 3 10 км 8/8 300 м
[St]
-1.4 -4.9 77 -6 -6 холодно 1027.7 1023.8
09 25.11 В 3
{10}
10 км 10/10 600 м
[Sc]
+2.1 -3.5 66 -2 -2 холодно 1026.5 1022.7
12 25.11 СВ 3
{10}
10 км 4/3 300 м
[St Ci fib]
+3.7 -2.9 62 0 +1 холодно 1025.5 1021.7
15 25.11 СВ 2 10 км ясно -0.5 -3.7 79 -4 -4 очень
холодно
1025.5 1021.6 +3.8
18 25.11 СВ 2 10 км 4/0
[Ci fib]
-1.4 -3.9 83 -5 -5 холодно 1024.7 1020.8
21 25.11 СВ 2 10 км ясно -1.9 -3.8 87 -6 -6 холодно 1023.9 1020.0
00 26.11 СВ 1 10 км ясно -1.7 -3.8 86 -4 -4 прохладно 1022.7 1018.8
03 26.11 СВ 2 10 км ясно -2.7 -4.7 86 -7 -7 очень
холодно
1021.9 1018.0 -2.8
06 26.11 СВ 1 10 км ясно -2.0 -4.8 81 -4 -3 прохладно 1022.1 1018.3 -3.4
09 26.11 СВ 2 10 км 9/9 300 м
[St]
+3.0 -2.4 68 0 +1 прохладно 1021.2 1017.4
12 26.11 СВ 1 10 км ясно +5.4 -1.7 60 +5 +6 по сезону 1020.1 1016.4
15 26.11 СВ 1 10 км ясно +1.1 -2.6 76 -1 -1 прохладно 1020.6 1016.8 +5.6
18 26.11 СВ 1 10 км 10/10 300 м
[St]
-0.6 -3.0 84 -3 -3 прохладно 1020.6 1016.8
21 26.11 СВ 2 10 км 10/10 300 м
[St]
-0.5 -2.3 88 -4 -4 холодно 1020.4 1016.6
00 27.11 СВ 1 10 км 10/10 300 м
[St]
-0.6 -2.7 86 -3 -3 прохладно 1020.6 1016.8
03 27.11 СВ 1 10 км 10/10 300 м
[St]
-0.7 -2.7 86 -3 -3 прохладно 1020.5 1016.7 -1.0
06 27.11 СВ 2 10 км 10/10 300 м
[St]
+0.2 -2.2 84 -3 -3 прохладно 1021.3 1017.5
09 27.11 СВ 1 10 км 10/10 300 м
[St]
+2.0 -1.9 75 +1 +1 по сезону 1021.4 1017.6
12 27.11 штиль 0 10 км 9/4 1000 м
[Sc Ac trans]
+3.2 -1.6 71 +2 +3 прохладно 1021.4 1017.7
15 27.11 ЮЗ 1 10 км 5/3 1000 м
[Sc Ac trans]
+1.7 -1.8 78 0 0 прохладно 1022.9 1019.1 +3.7
18 27.11 СЗ 1 10 км 10/10 600 м
[Sc]
+2.6 -1.3 75 +1 +1 по сезону 1023.5 1019.7
21 27.11 З 2 10 км слабый дождь 10/10 600 м
[Sc]
+1.7 -1.4 80 -2 -2 прохладно 1024.8 1021.0
00 28.11 З 1 10 км {дождь} 8/8 300 м
[St]
+0.8 -1.4 85 -1 -1 по сезону 1025.8 1022.0
03 28.11 штиль 0 10 км 9/9 1000 м
[Sc]
+0.3 -1.5 88 -1 -1 по сезону 1026.3 1022.5 -0.5 0.0
06 28.11 штиль 0 4000 м дымка 10/10 1000 м
[Sc]
+1.5 -0.8 85 0 0 по сезону 1028.0 1024.2
09 28.11 В 1 10 км 10/10 1000 м
[Sc]
+3.6 -2.4 65 +3 +3 по сезону 1028.2 1024.5
12 28.11 СВ 2 10 км 9/9 1000 м
[Sc]
+4.4 -2.2 62 +2 +2 прохладно 1028.3 1024.5
15 28.11 СВ 1 10 км 10/10 1000 м
[Sc]
+3.9 -1.3 69 +3 +3 по сезону 1029.1 1025.3 +4.5
18 28.11 10 км н/о +3.3 -0.7 75 +2 +2 по сезону 1029.2 1025.4
21 28.11 штиль 0 10 км 3/0
[Ci fib]
-0.7 -2.7 86 -2 -2 прохладно 1029.5 1025.7
00 29.11 штиль 0 10 км 4/0
[Ci fib]
-1.3 -2.7 90 -3 -3 прохладно 1029.4 1025.6

 

Обсудить погоду в Краснодаре на МЕТЕОФОРУМЕ

 

Местоположение метеостанции Краснодар (Краснодарский край, Россия): широта 45.03 долгота 39.15 высота над уровнем моря 34 м.

В архиве по умолчанию представлена погода в Краснодаре за последнюю неделю. Архивные данные за месяц целиком и за предыдущие месяцы, начиная с января 2011 года, Вы можете получить, выбрав интересующий диапазон дат из раскрывающегося списка и нажав кнопку "Ввод!".

Внимание! Время в таблицах - всемирное. Для получения местного времени необходимо прибавить поправку, которая в Краснодаре равна 3 ч.

Ветер - указаны скорость ветра в м/с - средняя за 10 мин, порывы в срок и между сроками (в фигурных скобках) и направление, откуда дует ветер: С - северный, СВ - северо-восточный, В - восточный, ЮВ - юго-восточный, Ю - южный, ЮЗ - юго-западный, З - западный, СЗ - северо-западный.
Видимость - горизонтальная дальность видимости в метрах или километрах. При видимости от 1 до 10 км при отсутствии осадков обычно наблюдается дымка, при ухудшении видимости до 1 км и менее - туман. В сухую погоду видимость может ухудшаться дымом, пылью или мглою.
Явления - указаны атсосферные явления, наблюдавшиеся в срок или в последний час перед сроком; фигурными скобками обозначены явления, наблюдавшиеся между сроками (за 1-3 часа до срока); квадратными скобками обозначены град или гололедные отложения с указанием их диаметра в мм.
Облачность - указаны через наклонную черту общая и нижняя облачность в баллах и высота нижней границы облаков в метрах; квадратными скобками обозначены формы облаков: Ci - перистые, Cs - перисто-слоистые, Cc - перисто-кучевые, Ac - высококучевые, As - высокослоистые, Sc - слоисто-кучевые, Ns - слоисто-дождевые, Cu - кучевые, Cb - кучево-дождевые. Подробнее классификацию облаков см. в Атласе облаков (PDF).
T - Температура воздуха - температура, измеренная на высоте 2 м над землей.
Td - Температура точки росы - температура, при понижении до которой содержащийся в воздухе водяной пар достигнет насыщения.
f - Относительная влажность воздуха - влажноcть воздуха, измеренная на высоте 2 м над землей.
Te - Эффективная температура - температура, которую ощущает одетый по сезону человек в тени. Характеристика душности погоды. При расчете учитывается влияние влажности воздуха и скорости ветра на теплоощущения человека.
Tes - Эффективная температура на солнце - температура, которую ощущает человек, с поправкой на солнечный нагрев. Характеристика знойности погоды. Зависит от высоты солнца над горизонтом, облачности и скорости ветра. Ночью, в пасмурную погоду, а также при ветре 12 м/с и более поправка равна нулю.
P - Атмосферное давление - приведенное к уровню моря атмосферное давление.
Po - Атмосферное давление - измеренное на уровне метеостанции атмосферное давление.
Tmin - Минимальная температура - минимум температуры воздуха на высоте 2 м над землей.
Tmax - Максимальная температура - максимум температуры воздуха на высоте 2 м над землей.
R - Количество осадков - Количество выпавших осадков, мм.
S - Снежный покров - Высота снежного покрова, см.